Home > Weather > Mechernich > Past weeks

Flag for Germany Weather for the Past 2 Weeks in Mechernich, North Rhine-Westphalia, Germany

Now
37 °F

Chilly.


Feels Like: 37 °F
Forecast: 30 / 33 °F
Wind: 2 mph from Southwest

Location: Noervenich

Current Time: Feb 14, 2016 at 5:09:32 AM

Latest Report: Feb 14, 2016 at 4:20 AM


Visibility: 1 mi

Pressure: 29.03 "Hg

Humidity: 93%

Dew point: 36 °F

Location of MechernichLocation

Historic Weather in Mechernich — Graph

°F

Mechernich Temperature Yesterday

Maximum temperature yesterday: 37 °F (at 12:20 PM)
Minimum temperature yesterday: 27 °F (at 3:20 AM)
Average temperature yesterday: 33 °F

High & Low Weather Summary for the Past Weeks

 TemperatureHumidityPressure
High54 °F (Jan 31, 10:20 PM)100% (Feb 2, 9:20 AM)30.30 "Hg (Feb 2, 9:20 AM)
Low27 °F (Feb 13, 3:20 AM)50% (Feb 7, 4:20 PM)28.85 "Hg (Feb 9, 3:20 PM)
Average44 °F79%29.72 "Hg
* Reported Jan 30 3:20 AM — Feb 14 3:20 AM, Mechernich, Weather by CustomWeather, © 2016

Note: Actual official high and low records may vary slightly from our data, if they occured in-between our weather recording intervals... More about our weather records

Advertising

Mechernich Weather History for the Previous 24 Hours

 ConditionsComfort  
Time TempWeatherWind HumidityBarometerVisibility
3:20 AM
Sun, Feb 14
37 °FChilly.No wind93%29.00 "Hg1 mi
2:20 AM37 °FChilly.No wind93%29.00 "Hg1 mi
1:20 AM37 °FChilly.No wind93%29.00 "Hg2 mi
12:20 AM37 °FChilly.1 mph93%29.00 "Hg3 mi
11:20 PM
Sat, Feb 13
37 °FChilly.2 mph93%29.00 "Hg3 mi
10:20 PM37 °FChilly.6 mph93%29.00 "Hg3 mi
9:20 PM36 °FChilly.5 mph100%29.00 "Hg3 mi
8:20 PM36 °FChilly.6 mph93%29.03 "Hg4 mi
7:20 PM36 °FLight rain. Passing clouds.6 mph93%29.03 "Hg6 mi
6:20 PM36 °FLight rain. Partly cloudy.8 mph93%29.06 "Hg4 mi
5:20 PM36 °FRain. Broken clouds.8 mph93%29.06 "Hg4 mi
4:20 PM37 °FRain. Broken clouds.7 mph87%29.09 "HgN/A
3:20 PM37 °FLight rain. Mostly cloudy.8 mph87%29.12 "HgN/A
2:20 PM37 °FMore clouds than sun.8 mph81%29.15 "HgN/A
1:20 PM37 °FLight rain. Partly sunny.6 mph75%29.18 "HgN/A
12:20 PM37 °FPartly sunny.7 mph75%29.21 "HgN/A
11:20 AM34 °FChilly.3 mph87%29.24 "HgN/A
10:20 AM32 °FChilly.5 mph87%29.27 "Hg6 mi
9:20 AM30 °FChilly.2 mph86%29.30 "HgN/A
8:20 AM28 °FChilly.2 mph93%29.30 "HgN/A
7:20 AM28 °FChilly.2 mph93%29.33 "HgN/A
6:20 AM27 °FPassing clouds.3 mph93%29.33 "HgN/A
5:20 AM27 °FPassing clouds.1 mph93%29.36 "HgN/A
Weather by CustomWeather, © 2016

See weather overviewHow to use our weather pages